Wind_Speed
20 20 20 20 21 21 22 22 22 22 21 22 22 23 23 23 23 23 24 24 24 24 25 26 26 27 28 28 29 30 31 32 33 34 35 35 36 37
21 21 21 22 22 23 24 24 23 23 23 24 24 24 25 25 25 26 26 26 26 26 27 28 29 30 31 31 32 33 34 35 36 37 38 39 40 40
22 23 23 23 24 24 24 25 25 25 26 26 26 26 26 27 27 27 28 28 29 29 29 31 32 33 33 34 35 36 37 38 39 40 41 42 43 43
23 24 25 25 25 25 24 24 25 26 26 27 28 29 29 29 29 30 30 31 31 32 33 34 35 35 37 37 38 39 40 41 42 43 44 45 46 47
25 25 25 25 24 25 25 26 26 26 26 27 28 30 30 30 30 31 32 32 33 35 36 37 38 39 40 41 42 43 43 45 46 47 48 49 49 50
24 24 24 24 25 25 26 27 27 27 27 28 28 29 31 32 32 33 34 34 36 37 38 39 40 41 42 43 44 45 47 48 49 50 50 51 51 52
24 25 24 24 25 26 27 28 27 27 28 28 29 31 32 33 34 35 36 37 38 39 40 41 42 43 44 45 46 48 49 51 51 51 52 53 54 54
24 24 24 25 26 27 27 27 27 27 28 29 30 31 32 33 34 36 37 38 39 40 41 42 44 45 46 47 49 51 51 52 52 53 54 55 56 56
23 24 24 25 26 26 27 28 28 28 30 31 32 32 33 34 35 37 38 40 40 42 43 44 46 48 49 51 51 52 53 54 54 56 56 57 58 58
23 24 25 26 27 28 28 29 30 31 32 33 33 33 34 35 37 38 40 41 42 43 45 46 48 50 51 51 52 53 54 55 56 56 57 58 59 59
24 25 26 26 27 28 29 30 31 33 33 33 33 34 35 37 38 39 41 42 44 45 46 48 49 49 50 51 52 53 54 55 55 56 56 57 57 57
24 25 25 26 27 28 29 30 32 33 33 33 34 35 36 38 39 41 43 44 45 46 47 48 49 49 50 51 52 53 52 52 53 54 54 54 55 55
25 25 26 27 28 29 30 31 32 32 33 34 34 35 37 38 39 41 42 44 45 46 46 47 48 49 50 50 50 50 50 50 50 51 52 52 52 52
25 26 27 28 28 29 30 32 32 32 33 33 34 36 37 38 39 41 41 42 43 44 45 45 46 47 47 47 47 47 48 48 49 50 51 50 50 49
28 28 28 28 29 30 31 32 33 33 34 35 36 37 37 38 38 39 40 41 41 42 42 43 44 44 44 44 45 45 46 46 47 48 48 47 46 46
28 29 29 29 30 31 32 33 34 35 35 36 36 36 37 37 38 39 39 40 41 41 42 42 41 41 42 42 43 44 44 44 44 44 43 43 43 43
28 29 30 30 31 32 32 32 34 35 36 36 35 36 37 38 38 38 39 39 40 40 39 39 40 40 41 41 41 41 41 41 41 41 41 40 40 40
29 30 31 31 31 32 32 33 34 34 35 35 35 36 37 37 37 37 38 38 38 38 38 38 38 38 39 39 39 38 38 38 38 38 38 37 37 36
30 30 30 30 32 32 32 33 33 34 34 35 35 35 36 36 36 37 37 37 36 36 35 35 35 35 36 36 36 36 35 35 36 37 36 36 35 35
30 30 30 31 32 32 32 32 33 34 34 34 34 34 35 35 35 35 35 34 33 33 32 33 33 33 33 34 33 34 34 34 35 35 34 34 34 34
29 30 30 30 31 31 31 31 32 32 32 32 33 33 33 33 33 33 32 32 31 31 31 31 31 31 32 32 32 32 33 34 34 34 33 32 31 31
30 30 30 30 30 30 30 30 31 31 31 31 31 32 32 32 31 31 30 29 29 29 29 30 30 29 29 30 30 30 31 33 34 34 33 32 31 30
29 29 29 29 29 29 29 29 30 30 30 30 30 31 30 30 29 28 27 26 27 27 27 27 27 27 28 28 29 30 31 32 32 32 33 33 32 32
Wind_Direction
260 262 264 264 265 266 266 266 267 268 269 271 272 273 273 275 276 277 278 279 281 282 281 282 282 282 284 285 285 285 285 285 286 285 285 284 284 283
262 264 265 266 266 267 266 267 269 269 269 272 272 272 273 275 277 277 278 279 281 280 281 282 283 283 284 285 285 285 285 285 285 285 285 284 283 283
264 266 266 267 268 268 267 267 268 269 268 269 270 271 273 275 276 277 277 279 279 280 280 282 283 283 284 285 286 285 286 286 286 287 287 286 285 283
266 267 267 268 269 268 267 268 270 270 268 268 269 271 273 274 274 275 278 279 279 279 281 283 283 283 284 285 286 286 287 287 287 287 287 287 285 284
269 268 268 269 269 268 268 268 269 270 271 271 271 273 274 274 275 277 278 279 280 281 283 284 284 284 285 286 286 287 287 288 288 288 288 287 286 285
272 272 270 270 271 270 269 269 269 271 272 272 273 275 275 275 277 277 278 281 282 282 283 283 284 286 287 287 287 287 288 288 288 288 288 288 287 286
271 272 271 270 271 274 272 271 271 273 274 275 274 276 276 277 276 278 280 282 284 285 284 285 287 287 287 287 287 289 290 290 289 288 288 288 287 288
273 271 272 273 273 274 273 272 273 275 276 279 279 279 278 277 277 279 282 282 285 287 287 288 288 288 288 288 289 290 291 291 290 289 289 289 288 288
276 276 276 278 275 275 275 274 274 275 278 281 280 279 279 280 281 283 283 284 285 286 287 288 289 288 288 289 290 292 292 292 291 290 290 290 289 289
278 279 280 281 281 280 279 277 277 279 280 281 282 282 283 284 284 285 286 286 288 289 289 289 289 289 290 291 292 292 293 292 292 292 291 291 290 290
279 280 281 282 283 281 282 281 281 283 283 283 284 285 286 287 287 288 288 289 290 290 291 291 291 291 292 292 293 293 293 293 293 293 293 293 293 293
283 283 284 285 287 285 283 283 283 283 283 283 284 284 287 289 290 290 290 291 292 292 292 292 293 292 292 293 294 294 295 295 295 295 295 295 295 295
283 284 286 287 288 287 287 286 286 286 286 287 287 288 291 292 293 293 293 293 293 294 294 294 294 294 294 295 295 296 296 297 297 297 297 297 298 297
285 286 288 289 288 289 290 288 289 291 291 291 292 293 294 295 297 298 298 297 296 296 297 297 298 298 299 299 299 299 299 300 300 300 300 300 299 299
287 289 291 291 291 291 292 291 292 292 293 293 293 295 296 297 298 299 300 300 300 301 301 301 302 302 302 303 303 303 303 303 303 304 303 302 302 301
288 289 292 292 293 293 292 292 293 294 296 297 297 298 298 299 299 300 301 302 303 304 304 303 304 304 305 306 306 306 306 306 306 307 307 306 305 305
290 291 292 292 293 294 295 295 295 296 299 299 299 300 301 301 302 304 304 305 306 306 307 306 307 307 308 308 309 310 310 311 311 311 311 311 310 309
291 292 291 291 292 295 296 296 297 298 299 300 300 301 302 303 304 305 306 307 308 309 308 309 309 310 311 312 312 314 314 316 317 317 317 316 315 314
291 291 291 291 293 295 296 296 297 298 299 301 301 303 305 306 306 307 308 310 311 312 312 312 313 314 315 316 317 318 319 321 322 322 322 321 319 318
289 289 290 291 294 295 297 297 298 299 301 303 304 305 306 306 307 308 310 312 313 313 314 316 317 319 320 321 322 323 323 325 326 326 326 325 324 323
290 289 290 293 295 297 298 299 299 301 303 305 306 307 308 309 310 310 311 312 313 314 316 318 319 321 323 325 326 327 328 328 329 330 330 330 329 328
290 291 292 295 296 297 298 298 300 302 304 306 307 309 310 311 311 312 313 314 315 316 318 319 321 323 325 327 329 331 332 333 334 334 333 333 333 333
291 293 294 295 297 298 299 300 301 302 305 307 308 310 311 312 313 314 316 317 318 319 320 322 324 325 327 329 331 333 335 337 338 338 337 337 336 336
Height
5880 5881 5881 5881 5881 5881 5881 5881 5882 5881 5881 5880 5880 5879 5878 5878 5877 5877 5876 5875 5874 5873 5872 5870 5869 5868 5867 5865 5864 5862 5860 5858 5856 5854 5852 5850 5849 5847
5875 5876 5876 5876 5876 5876 5876 5876 5876 5876 5876 5875 5874 5874 5873 5872 5872 5871 5870 5869 5868 5867 5865 5864 5862 5861 5859 5858 5856 5854 5852 5849 5847 5845 5843 5840 5838 5836
5870 5870 5870 5870 5870 5870 5870 5870 5870 5869 5869 5869 5868 5868 5867 5866 5865 5864 5863 5862 5861 5860 5858 5856 5855 5853 5851 5849 5847 5845 5842 5840 5837 5835 5832 5830 5827 5825
5865 5865 5864 5864 5864 5864 5864 5863 5863 5863 5863 5862 5862 5861 5860 5859 5858 5857 5856 5855 5854 5852 5850 5848 5846 5844 5842 5840 5837 5835 5832 5829 5827 5824 5821 5818 5816 5813
5859 5858 5858 5858 5858 5858 5858 5857 5857 5856 5856 5856 5855 5854 5853 5852 5851 5850 5848 5847 5845 5844 5842 5839 5837 5834 5832 5829 5827 5824 5821 5818 5815 5812 5809 5805 5802 5799
5853 5852 5852 5852 5852 5851 5851 5851 5850 5850 5849 5848 5848 5847 5845 5844 5843 5842 5840 5838 5836 5834 5832 5829 5827 5824 5821 5819 5816 5813 5810 5806 5803 5799 5795 5792 5788 5785
5847 5847 5846 5846 5845 5845 5845 5844 5843 5843 5842 5841 5840 5839 5837 5836 5835 5833 5831 5829 5827 5824 5822 5819 5816 5813 5810 5807 5804 5801 5797 5793 5789 5785 5781 5777 5774 5770
5841 5840 5840 5839 5839 5838 5837 5837 5836 5835 5834 5833 5832 5831 5829 5828 5826 5824 5822 5820 5817 5815 5812 5809 5805 5802 5798 5795 5791 5788 5783 5779 5775 5771 5767 5762 5758 5754
5835 5835 5834 5833 5832 5831 5830 5829 5829 5828 5827 5826 5824 5823 5821 5819 5817 5815 5813 5810 5807 5804 5801 5797 5794 5790 5786 5782 5778 5774 5769 5765 5760 5756 5751 5746 5742 5737
5830 5829 5828 5827 5826 5825 5824 5822 5822 5821 5819 5818 5816 5814 5812 5810 5808 5805 5802 5800 5796 5793 5790 5786 5781 5777 5773 5769 5764 5759 5755 5750 5745 5740 5735 5730 5725 5720
5823 5823 5821 5820 5819 5818 5817 5815 5814 5812 5811 5809 5807 5805 5802 5800 5797 5795 5792 5789 5785 5782 5777 5773 5769 5764 5760 5755 5750 5745 5740 5735 5730 5724 5719 5714 5709 5703
5817 5816 5815 5813 5811 5810 5808 5807 5805 5803 5802 5800 5798 5795 5792 5790 5787 5784 5781 5777 5773 5770 5765 5761 5756 5751 5747 5741 5736 5731 5725 5720 5715 5709 5704 5698 5693 5687
5811 5809 5808 5806 5804 5803 5801 5799 5797 5795 5793 5790 5788 5785 5783 5779 5776 5773 5769 5765 5761 5757 5753 5748 5743 5738 5733 5728 5722 5717 5711 5706 5700 5695 5689 5683 5677 5672
5805 5803 5801 5799 5797 5795 5793 5791 5789 5787 5784 5781 5779 5776 5773 5769 5766 5762 5758 5753 5749 5745 5740 5736 5731 5726 5720 5715 5710 5704 5698 5692 5687 5681 5675 5669 5663 5657
5797 5796 5794 5792 5790 5788 5786 5783 5781 5779 5776 5773 5770 5767 5763 5760 5756 5752 5747 5743 5738 5734 5729 5724 5719 5714 5709 5703 5698 5693 5687 5681 5674 5668 5662 5656 5650 5644
5790 5788 5787 5785 5783 5780 5778 5775 5773 5770 5767 5763 5760 5757 5754 5750 5746 5742 5738 5733 5728 5723 5718 5713 5708 5703 5698 5693 5687 5681 5675 5669 5663 5656 5650 5644 5637 5632
5783 5781 5779 5777 5775 5772 5769 5767 5764 5761 5758 5754 5751 5748 5744 5740 5736 5732 5728 5723 5718 5713 5708 5703 5698 5693 5688 5683 5677 5671 5665 5659 5652 5646 5640 5634 5627 5621
5775 5773 5771 5768 5766 5764 5761 5758 5755 5752 5749 5746 5742 5739 5735 5731 5727 5722 5718 5713 5709 5704 5699 5694 5689 5684 5679 5673 5668 5662 5656 5650 5643 5637 5631 5624 5618 5612
5767 5765 5762 5760 5758 5755 5752 5749 5747 5743 5740 5737 5733 5730 5726 5722 5718 5713 5709 5704 5699 5695 5690 5685 5680 5675 5670 5665 5659 5653 5648 5642 5636 5629 5623 5616 5610 5604
5759 5757 5754 5752 5749 5747 5744 5741 5738 5735 5731 5728 5724 5721 5717 5713 5709 5704 5700 5696 5691 5687 5682 5678 5673 5668 5663 5658 5652 5646 5641 5635 5629 5622 5616 5609 5603 5596
5750 5748 5746 5744 5741 5738 5735 5732 5729 5726 5723 5719 5716 5712 5708 5704 5700 5696 5692 5688 5684 5680 5675 5671 5666 5661 5656 5651 5646 5640 5634 5628 5622 5616 5610 5604 5598 5592
5742 5740 5738 5735 5733 5730 5727 5724 5721 5718 5714 5711 5708 5704 5700 5697 5693 5689 5685 5681 5677 5673 5669 5665 5660 5655 5651 5646 5640 5635 5629 5623 5616 5609 5603 5597 5592 5586
5734 5732 5729 5727 5724 5722 5719 5716 5713 5710 5707 5703 5700 5697 5693 5689 5686 5682 5678 5675 5671 5667 5663 5659 5654 5650 5645 5640 5635 5630 5624 5618 5612 5605 5599 5592 5587 5580